Regional Weather Roundup
Issued by NWS

Home | Current Version | Previous Version | Graphics & Text | Print | Product List | Glossary On
Versions: 1 2 3 4 5 6 7 8 9 10 11 12 13 14 15 16 17 18 19 20 21 22 23 24 25 26 27 28 29 30 31 32 33 34 35 36 37 38 39 40 41 42 43 44 45 46 47 48 49 50
000
ASUS43 KFSD 251702
RWRSD

WEATHER ROUNDUP FOR SOUTH DAKOTA
NATIONAL WEATHER SERVICE SIOUX FALLS SD
1200 PM CDT FRI JUL 25 2014

NOTE: "FAIR" INDICATES FEW OR NO CLOUDS BELOW 12,000 FEET WITH NO
SIGNIFICANT WEATHER AND/OR OBSTRUCTIONS TO VISIBILITY.


SDZ001>005-009-010-012>017-251800-
NORTHWEST AND NORTH CENTRAL SOUTH DAKOTA

CITY           SKY/WX    TMP DP  RH WIND       PRES   REMARKS
BUFFALO          N/A     73  40  30 CALM      29.90F
FAITH            N/A     76  44  32 N16       29.93F
MOBRIDGE       SUNNY     79  53  40 N14G22    29.83R
$$

SDZ012>016-024>037-041>051-057-063-072>074-251800-
SOUTHWEST AND SOUTH CENTRAL SOUTH DAKOTA

CITY           SKY/WX    TMP DP  RH WIND       PRES   REMARKS
RAPID CTY ARPT SUNNY     74  42  31 N7        30.00S
PIERRE         MOSUNNY   80  66  62 NW17G26   29.84S
CUSTER         SUNNY     71  55  56 VRB5      30.10S
ELLSWORTH AFB  SUNNY     74  40  29 N8        30.00S
PHILIP         SUNNY     81  41  24 N12       29.92S
PINE RIDGE     SUNNY     75  42  30 N7        30.01R
WINNER         FAIR      86  67  52 NW17      29.84R
$$

SDZ004>011-016>023-039-040-251800-
NORTHEAST SOUTH DAKOTA

CITY           SKY/WX    TMP DP  RH WIND       PRES   REMARKS
ABERDEEN       CLOUDY    72  67  84 NE12      29.79R
WATERTOWN      MOSUNNY   77  68  73 SW9       29.78S
SISSETON         N/A     77  69  76 CALM      29.76R
$$

SDZ017-020-022-023-036>040-048>070-251800-
SOUTHEAST SOUTH DAKOTA

CITY           SKY/WX    TMP DP  RH WIND       PRES   REMARKS
SIOUX FALLS    MOSUNNY   77  68  73 SE9       29.79R
HURON          PTSUNNY   80  68  66 VRB6      29.76S
CHAMBERLAIN    SUNNY     81  66  61 NW12G18   29.81R
MITCHELL       SUNNY     81  69  67 VRB5      29.77S
YANKTON        SUNNY     79  70  73 S6        29.76S
$$

ABBREVIATIONS USED IN REMARKS
   TC - TEMPERATURE IN CELSIUS
  WCI - WIND CHILL INDEX
   HX - HEAT INDEX
  VSB - VISIBILITY



USA.gov is the U.S. government's official web portal to all federal, state and local government web resources and services.